| time (UTC) | temp C | wind direction | speed KPH | gust KPH | rain 1hr cm | rain 24hr cm | rain mn cm | humidity % | barometer mb |
| 20260507070334 | 14 | 212 | 0.0 | 0.0 | 0.00 | 0.15 | 0.00 | 92 | 1003.1 |
| 20260507065834 | 14 | 212 | 0.0 | 0.0 | 0.00 | 0.15 | 0.00 | 92 | 1003.1 |
| 20260507065334 | 14 | 212 | 0.0 | 0.0 | 0.00 | 0.15 | 0.00 | 92 | 1003.1 |
| 20260507064834 | 13 | 212 | 0.0 | 0.0 | 0.00 | 0.15 | 0.00 | 92 | 1003.1 |
| 20260507064334 | 13 | 212 | 0.0 | 0.0 | 0.00 | 0.15 | 0.00 | 92 | 1003.2 |
| 20260507063835 | 13 | 212 | 0.0 | 0.0 | 0.00 | 0.15 | 0.00 | 92 | 1003.2 |
| 20260507063334 | 13 | 212 | 0.0 | 0.0 | 0.00 | 0.15 | 0.00 | 92 | 1003.2 |
| 20260507062334 | 14 | 212 | 0.0 | 0.0 | 0.00 | 0.15 | 0.00 | 92 | 1003.5 |
| 20260507061834 | 14 | 212 | 0.0 | 0.0 | 0.00 | 0.15 | 0.00 | 92 | 1003.5 |
| 20260507061334 | 14 | 212 | 0.0 | 0.0 | 0.00 | 0.15 | 0.00 | 92 | 1003.6 |
| 20260507060834 | 13 | 212 | 0.0 | 0.0 | 0.00 | 0.15 | 0.00 | 92 | 1003.6 |
| 20260507055834 | 14 | 212 | 0.0 | 0.0 | 0.00 | 0.15 | 0.00 | 92 | 1003.8 |
| 20260507055334 | 13 | 212 | 0.0 | 0.0 | 0.00 | 0.15 | 0.00 | 92 | 1003.8 |
| 20260507054834 | 14 | 212 | 0.0 | 0.0 | 0.00 | 0.15 | 0.00 | 92 | 1003.8 |
| 20260507053834 | 13 | 212 | 0.0 | 0.0 | 0.00 | 0.15 | 0.00 | 92 | 1003.8 |
| 20260507053334 | 13 | 212 | 0.0 | 0.0 | 0.00 | 0.15 | 0.00 | 92 | 1003.8 |
| 20260507052834 | 13 | 212 | 0.0 | 0.0 | 0.00 | 0.15 | 0.00 | 92 | 1003.9 |
| 20260507051834 | 13 | 212 | 0.0 | 0.0 | 0.00 | 0.15 | 0.00 | 92 | 1003.9 |
| 20260507051334 | 13 | 212 | 0.0 | 0.0 | 0.00 | 0.15 | 0.00 | 92 | 1004.1 |
| 20260507050834 | 13 | 212 | 0.0 | 0.0 | 0.00 | 0.15 | 0.00 | 92 | 1004.1 |
| 20260507050336 | 13 | 212 | 0.0 | 0.0 | 0.00 | 0.15 | 0.00 | 92 | 1004.1 |
| 20260507045334 | 13 | 212 | 0.0 | 0.0 | 0.00 | 0.15 | 0.00 | 92 | 1004.1 |
| 20260507044834 | 13 | 212 | 0.0 | 0.0 | 0.00 | 0.15 | 0.00 | 92 | 1004.1 |
| 20260507044334 | 13 | 212 | 0.0 | 0.0 | 0.00 | 0.15 | 0.00 | 92 | 1004.1 |
| 20260507043834 | 13 | 212 | 0.0 | 0.0 | 0.00 | 0.15 | 0.00 | 92 | 1004.1 |
| 20260507043335 | 13 | 212 | 0.0 | 0.0 | 0.00 | 0.15 | 0.00 | 92 | 1004.1 |
| 20260507041834 | 13 | 212 | 0.0 | 0.0 | 0.00 | 0.15 | 0.00 | 92 | 1004.0 |
| 20260507041335 | 13 | 212 | 0.0 | 0.0 | 0.00 | 0.15 | 0.00 | 92 | 1004.0 |
| 20260507040834 | 13 | 212 | 0.0 | 0.0 | 0.00 | 0.15 | 0.00 | 92 | 1004.0 |
| 20260507035834 | 13 | 212 | 0.0 | 0.0 | 0.00 | 0.15 | 0.00 | 92 | 1004.1 |
| 20260507035335 | 13 | 212 | 0.0 | 0.0 | 0.00 | 0.15 | 0.00 | 92 | 1004.1 |
| 20260507034834 | 13 | 211 | 0.0 | 0.0 | 0.00 | 0.15 | 0.00 | 92 | 1004.1 |
| 20260507034334 | 13 | 211 | 0.0 | 0.0 | 0.00 | 0.15 | 0.00 | 92 | 1004.4 |
| 20260507033834 | 13 | 211 | 0.0 | 0.0 | 0.00 | 0.15 | 0.00 | 92 | 1004.4 |
| 20260507032834 | 13 | 211 | 0.0 | 0.0 | 0.00 | 0.15 | 0.00 | 92 | 1004.1 |
| 20260507032334 | 13 | 211 | 0.0 | 0.0 | 0.00 | 0.15 | 0.00 | 92 | 1004.1 |
| 20260507031834 | 13 | 211 | 0.0 | 0.0 | 0.00 | 0.15 | 0.00 | 92 | 1004.1 |
| 20260507031334 | 13 | 211 | 0.0 | 0.0 | 0.00 | 0.15 | 0.00 | 92 | 1004.1 |
| 20260507030834 | 13 | 211 | 0.0 | 0.0 | 0.00 | 0.15 | 0.00 | 92 | 1004.1 |
| 20260507030336 | 13 | 211 | 0.0 | 0.0 | 0.00 | 0.15 | 0.00 | 92 | 1004.1 |
| 20260507025834 | 13 | 211 | 0.0 | 0.0 | 0.00 | 0.15 | 0.15 | 92 | 1003.9 |
| 20260507025334 | 13 | 213 | 0.0 | 0.0 | 0.00 | 0.15 | 0.15 | 92 | 1003.9 |
| 20260507024834 | 13 | 213 | 0.0 | 0.0 | 0.00 | 0.15 | 0.15 | 92 | 1003.9 |
| 20260507023834 | 13 | 205 | 0.0 | 0.0 | 0.00 | 0.15 | 0.15 | 92 | 1003.7 |
| 20260507023334 | 13 | 205 | 0.0 | 0.0 | 0.00 | 0.15 | 0.15 | 92 | 1003.7 |
| 20260507022835 | 13 | 205 | 0.0 | 0.0 | 0.00 | 0.15 | 0.15 | 92 | 1004.1 |
| 20260507022335 | 13 | 205 | 0.0 | 0.0 | 0.00 | 0.15 | 0.15 | 92 | 1004.1 |
| 20260507021834 | 13 | 205 | 0.0 | 0.0 | 0.00 | 0.15 | 0.15 | 92 | 1004.1 |
| 20260507021334 | 13 | 205 | 0.0 | 0.0 | 0.00 | 0.15 | 0.15 | 92 | 1004.1 |
| 20260507015849 | 13 | 205 | 0.0 | 0.0 | 0.00 | 0.15 | 0.15 | 92 | 1004.6 |
| 20260507015334 | 13 | 205 | 0.0 | 0.0 | 0.00 | 0.15 | 0.15 | 92 | 1004.6 |
| 20260507014834 | 13 | 205 | 0.0 | 0.0 | 0.00 | 0.15 | 0.15 | 92 | 1004.6 |
| 20260507014334 | 13 | 205 | 0.0 | 0.0 | 0.00 | 0.15 | 0.15 | 92 | 1004.6 |
| 20260507013834 | 13 | 205 | 0.0 | 0.0 | 0.00 | 0.15 | 0.15 | 92 | 1004.6 |
| 20260507013335 | 13 | 205 | 0.0 | 0.0 | 0.00 | 0.15 | 0.15 | 92 | 1004.6 |
| 20260507012834 | 13 | 205 | 0.0 | 0.0 | 0.00 | 0.15 | 0.15 | 92 | 1004.6 |
| 20260507012334 | 13 | 205 | 0.0 | 0.0 | 0.00 | 0.15 | 0.15 | 92 | 1004.6 |
| 20260507011835 | 13 | 205 | 0.0 | 0.0 | 0.00 | 0.15 | 0.15 | 92 | 1004.6 |
| 20260507011334 | 13 | 205 | 0.0 | 0.0 | 0.00 | 0.15 | 0.15 | 92 | 1004.7 |
| 20260507010834 | 13 | 205 | 0.0 | 0.0 | 0.00 | 0.15 | 0.15 | 92 | 1004.7 |
| 20260507010334 | 13 | 205 | 0.0 | 0.0 | 0.00 | 0.15 | 0.15 | 92 | 1004.7 |
| 20260507005335 | 13 | 204 | 0.0 | 0.0 | 0.03 | 0.15 | 0.15 | 92 | 1004.6 |
| 20260507004834 | 13 | 204 | 0.0 | 0.0 | 0.03 | 0.15 | 0.15 | 92 | 1004.6 |
| 20260507004334 | 13 | 205 | 0.0 | 0.0 | 0.03 | 0.15 | 0.15 | 92 | 1004.5 |
| 20260507003834 | 13 | 234 | 0.0 | 0.0 | 0.03 | 0.15 | 0.15 | 91 | 1004.5 |
| 20260507003334 | 13 | 234 | 0.0 | 0.0 | 0.03 | 0.15 | 0.15 | 91 | 1004.5 |
| 20260507002834 | 13 | 234 | 0.0 | 0.0 | 0.03 | 0.15 | 0.15 | 91 | 1004.5 |
| 20260507002334 | 13 | 234 | 0.0 | 0.0 | 0.03 | 0.15 | 0.15 | 91 | 1004.5 |
| 20260507001834 | 13 | 234 | 0.0 | 0.0 | 0.03 | 0.15 | 0.15 | 91 | 1004.5 |
| 20260507001334 | 13 | 235 | 0.0 | 0.0 | 0.03 | 0.15 | 0.15 | 91 | 1004.3 |
| 20260507000835 | 13 | 205 | 0.0 | 0.0 | 0.03 | 0.15 | 0.15 | 91 | 1004.3 |
| 20260507000336 | 13 | 205 | 0.0 | 0.0 | 0.03 | 0.15 | 0.15 | 91 | 1004.3 |
| 20260506235835 | 13 | 205 | 0.0 | 0.0 | 0.03 | 0.15 | 0.15 | 91 | 1004.4 |
| 20260506235334 | 13 | 219 | 0.0 | 0.0 | 0.00 | 0.13 | 0.13 | 91 | 1004.4 |
| 20260506234834 | 13 | 215 | 0.0 | 0.0 | 0.00 | 0.13 | 0.13 | 91 | 1004.4 |
| 20260506234334 | 13 | 218 | 0.0 | 1.6 | 0.03 | 0.13 | 0.13 | 91 | 1004.5 |
| 20260506233335 | 13 | 200 | 0.0 | 3.2 | 0.03 | 0.13 | 0.13 | 91 | 1004.5 |
| 20260506232834 | 13 | 219 | 0.0 | 1.6 | 0.03 | 0.13 | 0.13 | 91 | 1004.6 |
| 20260506231834 | 13 | 211 | 0.0 | 0.0 | 0.08 | 0.13 | 0.13 | 91 | 1004.6 |
| 20260506231334 | 13 | 231 | 0.0 | 0.0 | 0.08 | 0.13 | 0.13 | 91 | 1004.6 |
| 20260506230834 | 13 | 200 | 0.0 | 0.0 | 0.08 | 0.13 | 0.13 | 91 | 1004.6 |
| 20260506230334 | 13 | 200 | 0.0 | 0.0 | 0.08 | 0.13 | 0.13 | 91 | 1004.6 |
| 20260506225834 | 13 | 202 | 0.0 | 0.0 | 0.08 | 0.13 | 0.13 | 91 | 1004.4 |
| 20260506224834 | 13 | 203 | 0.0 | 0.0 | 0.08 | 0.13 | 0.13 | 90 | 1004.4 |
| 20260506224334 | 13 | 205 | 0.0 | 0.0 | 0.05 | 0.10 | 0.10 | 90 | 1004.5 |
| 20260506223834 | 14 | 214 | 0.0 | 0.0 | 0.05 | 0.10 | 0.10 | 90 | 1004.5 |
| 20260506223334 | 14 | 215 | 0.0 | 0.0 | 0.05 | 0.10 | 0.10 | 90 | 1004.5 |
| 20260506222834 | 14 | 215 | 0.0 | 0.0 | 0.05 | 0.10 | 0.10 | 90 | 1004.9 |
| 20260506222334 | 14 | 231 | 0.0 | 0.0 | 0.03 | 0.08 | 0.08 | 90 | 1004.9 |
| 20260506221835 | 14 | 218 | 0.0 | 8.0 | 0.00 | 0.05 | 0.05 | 90 | 1004.9 |
| 20260506221334 | 14 | 191 | 0.0 | 8.0 | 0.00 | 0.05 | 0.05 | 89 | 1005.0 |
| 20260506220334 | 14 | 231 | 0.0 | 0.0 | 0.00 | 0.05 | 0.05 | 89 | 1005.0 |
| 20260506215834 | 14 | 208 | 0.0 | 0.0 | 0.00 | 0.05 | 0.05 | 89 | 1005.1 |
| 20260506214834 | 14 | 210 | 0.0 | 0.0 | 0.00 | 0.05 | 0.05 | 89 | 1005.1 |
| 20260506214334 | 14 | 209 | 0.0 | 3.2 | 0.00 | 0.05 | 0.05 | 89 | 1005.1 |
| 20260506213834 | 14 | 205 | 0.0 | 3.2 | 0.00 | 0.05 | 0.05 | 89 | 1005.1 |
| 20260506213334 | 15 | 216 | 0.0 | 3.2 | 0.00 | 0.05 | 0.05 | 89 | 1005.1 |
| 20260506212334 | 15 | 205 | 0.0 | 0.0 | 0.00 | 0.05 | 0.05 | 89 | 1005.1 |
| 20260506211834 | 15 | 206 | 0.0 | 0.0 | 0.00 | 0.05 | 0.05 | 88 | 1005.1 |
| 20260506211334 | 15 | 206 | 0.0 | 0.0 | 0.00 | 0.05 | 0.05 | 89 | 1005.2 |
| 20260506210834 | 15 | 233 | 0.0 | 0.0 | 0.03 | 0.05 | 0.05 | 89 | 1005.2 |
| 20260506210334 | 15 | 221 | 0.0 | 4.8 | 0.03 | 0.05 | 0.05 | 88 | 1005.2 |
| 20260506205834 | 15 | 231 | 0.0 | 4.8 | 0.05 | 0.05 | 0.05 | 88 | 1005.2 |
| 20260506205334 | 15 | 215 | 0.0 | 0.0 | 0.05 | 0.05 | 0.05 | 88 | 1005.2 |
| 20260506204834 | 15 | 214 | 0.0 | 0.0 | 0.05 | 0.05 | 0.05 | 88 | 1005.2 |
| 20260506204334 | 15 | 232 | 0.0 | 0.0 | 0.05 | 0.05 | 0.05 | 88 | 1005.3 |
| 20260506203834 | 15 | 227 | 0.0 | 0.0 | 0.05 | 0.05 | 0.05 | 88 | 1005.3 |
| 20260506203335 | 15 | 236 | 0.0 | 0.0 | 0.05 | 0.05 | 0.05 | 88 | 1005.3 |
| 20260506202334 | 15 | 197 | 0.0 | 0.0 | 0.05 | 0.05 | 0.05 | 87 | 1005.6 |
| 20260506201834 | 15 | 198 | 0.0 | 0.0 | 0.05 | 0.05 | 0.05 | 88 | 1005.6 |
| 20260506201334 | 15 | 200 | 0.0 | 0.0 | 0.05 | 0.05 | 0.05 | 87 | 1005.6 |
| 20260506200834 | 15 | 198 | 0.0 | 0.0 | 0.03 | 0.03 | 0.03 | 87 | 1005.6 |
| 20260506195334 | 16 | 238 | 0.0 | 0.0 | 0.00 | 0.00 | 0.00 | 85 | 1005.7 |
| 20260506194834 | 16 | 202 | 0.0 | 0.0 | 0.00 | 0.00 | 0.00 | 84 | 1005.8 |
| 20260506193834 | 16 | 215 | 0.0 | 4.8 | 0.00 | 0.00 | 0.00 | 82 | 1005.7 |
| 20260506193334 | 17 | 203 | 0.0 | 0.0 | 0.00 | 0.00 | 0.00 | 81 | 1005.8 |
| 20260506192334 | 17 | 255 | 0.0 | 4.8 | 0.00 | 0.00 | 0.00 | 79 | 1005.7 |
| 20260506191834 | 17 | 209 | 0.0 | 0.0 | 0.00 | 0.00 | 0.00 | 79 | 1005.7 |
| 20260506190834 | 17 | 230 | 0.0 | 3.2 | 0.00 | 0.00 | 0.00 | 79 | 1005.9 |
| 20260506190334 | 17 | 207 | 0.0 | 3.2 | 0.00 | 0.00 | 0.00 | 79 | 1005.9 |
| 20260506185835 | 17 | 243 | 0.0 | 0.0 | 0.00 | 0.00 | 0.00 | 79 | 1005.7 |
| 20260506185334 | 17 | 208 | 0.0 | 8.0 | 0.00 | 0.00 | 0.00 | 78 | 1005.7 |
| 20260506184335 | 17 | 203 | 0.0 | 6.4 | 0.00 | 0.00 | 0.00 | 78 | 1006.0 |
| 20260506183334 | 18 | 210 | 0.0 | 8.0 | 0.00 | 0.00 | 0.00 | 77 | 1006.0 |
| 20260506182834 | 18 | 225 | 0.0 | 9.7 | 0.00 | 0.00 | 0.00 | 76 | 1006.2 |
| 20260506182334 | 18 | 207 | 0.0 | 9.7 | 0.00 | 0.00 | 0.00 | 76 | 1006.2 |
| 20260506181834 | 18 | 204 | 0.0 | 9.7 | 0.00 | 0.00 | 0.00 | 76 | 1006.2 |
| 20260506181334 | 18 | 206 | 0.0 | 1.6 | 0.00 | 0.00 | 0.00 | 76 | 1006.3 |
| 20260506180834 | 18 | 193 | 0.0 | 8.0 | 0.00 | 0.00 | 0.00 | 75 | 1006.3 |
| 20260506180334 | 18 | 204 | 0.0 | 8.0 | 0.00 | 0.00 | 0.00 | 75 | 1006.3 |
| 20260506175834 | 19 | 203 | 0.0 | 4.8 | 0.00 | 0.00 | 0.00 | 74 | 1006.7 |
| 20260506175334 | 19 | 203 | 0.0 | 9.7 | 0.00 | 0.00 | 0.00 | 74 | 1006.7 |
| 20260506174834 | 19 | 234 | 0.0 | 9.7 | 0.00 | 0.00 | 0.00 | 74 | 1006.7 |
| 20260506174334 | 19 | 207 | 0.0 | 9.7 | 0.00 | 0.00 | 0.00 | 74 | 1006.9 |
| 20260506173834 | 19 | 206 | 0.0 | 9.7 | 0.00 | 0.00 | 0.00 | 74 | 1006.9 |
| 20260506173334 | 19 | 180 | 9.7 | 11.3 | 0.00 | 0.00 | 0.00 | 74 | 1006.9 |
| 20260506172834 | 20 | 267 | 0.0 | 11.3 | 0.00 | 0.00 | 0.00 | 72 | 1006.7 |
| 20260506171834 | 20 | 198 | 0.0 | 11.3 | 0.00 | 0.00 | 0.00 | 71 | 1006.7 |
| 20260506171334 | 20 | 230 | 0.0 | 8.0 | 0.00 | 0.00 | 0.00 | 72 | 1006.7 |
| 20260506170834 | 20 | 214 | 0.0 | 8.0 | 0.00 | 0.00 | 0.00 | 73 | 1006.7 |
| 20260506170334 | 20 | 184 | 0.0 | 9.7 | 0.00 | 0.00 | 0.00 | 73 | 1006.7 |
| 20260506165834 | 20 | 188 | 0.0 | 9.7 | 0.00 | 0.00 | 0.00 | 74 | 1007.0 |
| 20260506165334 | 20 | 199 | 0.0 | 6.4 | 0.00 | 0.00 | 0.00 | 73 | 1007.0 |
| 20260506164834 | 20 | 194 | 0.0 | 12.9 | 0.00 | 0.00 | 0.00 | 73 | 1007.0 |
| 20260506163834 | 20 | 185 | 0.0 | 11.3 | 0.00 | 0.00 | 0.00 | 72 | 1007.3 |
| 20260506162834 | 20 | 204 | 0.0 | 9.7 | 0.00 | 0.00 | 0.00 | 73 | 1007.4 |
| 20260506161834 | 20 | 183 | 0.0 | 8.0 | 0.00 | 0.00 | 0.00 | 73 | 1007.4 |
| 20260506161334 | 20 | 236 | 0.0 | 11.3 | 0.00 | 0.00 | 0.00 | 73 | 1007.6 |
| 20260506160834 | 20 | 218 | 0.0 | 11.3 | 0.00 | 0.00 | 0.00 | 72 | 1007.6 |
| 20260506160334 | 20 | 214 | 0.0 | 6.4 | 0.00 | 0.00 | 0.00 | 72 | 1007.6 |
| 20260506155334 | 20 | 214 | 0.0 | 6.4 | 0.00 | 0.00 | 0.00 | 71 | 1007.8 |
| 20260506154334 | 20 | 195 | 0.0 | 6.4 | 0.00 | 0.00 | 0.00 | 72 | 1008.1 |
| 20260506153834 | 20 | 215 | 0.0 | 6.4 | 0.00 | 0.00 | 0.00 | 72 | 1008.1 |
| 20260506153334 | 20 | 197 | 0.0 | 6.4 | 0.00 | 0.00 | 0.00 | 74 | 1008.1 |
| 20260506152834 | 20 | 201 | 0.0 | 9.7 | 0.00 | 0.00 | 0.00 | 73 | 1008.3 |
| 20260506152335 | 19 | 194 | 0.0 | 9.7 | 0.00 | 0.00 | 0.00 | 74 | 1008.3 |
| 20260506151834 | 19 | 186 | 0.0 | 4.8 | 0.00 | 0.00 | 0.00 | 74 | 1008.3 |
| 20260506151335 | 19 | 212 | 0.0 | 1.6 | 0.00 | 0.00 | 0.00 | 74 | 1008.2 |
| 20260506150834 | 19 | 203 | 0.0 | 8.0 | 0.00 | 0.00 | 0.00 | 74 | 1008.2 |
| 20260506150334 | 19 | 202 | 0.0 | 8.0 | 0.00 | 0.00 | 0.00 | 74 | 1008.2 |
| 20260506145835 | 19 | 210 | 0.0 | 3.2 | 0.00 | 0.00 | 0.00 | 74 | 1008.0 |
| 20260506145334 | 19 | 232 | 0.0 | 3.2 | 0.00 | 0.00 | 0.00 | 74 | 1008.0 |
| 20260506144834 | 19 | 212 | 0.0 | 0.0 | 0.00 | 0.00 | 0.00 | 74 | 1008.0 |
| 20260506144334 | 19 | 238 | 0.0 | 0.0 | 0.00 | 0.00 | 0.00 | 74 | 1007.9 |
| 20260506143834 | 19 | 232 | 0.0 | 1.6 | 0.00 | 0.00 | 0.00 | 74 | 1007.9 |
| 20260506143334 | 19 | 199 | 0.0 | 1.6 | 0.00 | 0.00 | 0.00 | 73 | 1007.9 |
| 20260506142834 | 19 | 205 | 0.0 | 0.0 | 0.00 | 0.00 | 0.00 | 75 | 1007.9 |
| 20260506141834 | 19 | 224 | 0.0 | 3.2 | 0.00 | 0.00 | 0.00 | 75 | 1007.9 |
| 20260506141334 | 18 | 233 | 0.0 | 3.2 | 0.00 | 0.00 | 0.00 | 75 | 1007.9 |
| 20260506140834 | 18 | 217 | 0.0 | 0.0 | 0.00 | 0.00 | 0.00 | 76 | 1007.9 |
| 20260506140334 | 18 | 176 | 0.0 | 0.0 | 0.00 | 0.00 | 0.00 | 76 | 1007.9 |
| 20260506135834 | 18 | 169 | 0.0 | 6.4 | 0.00 | 0.00 | 0.00 | 77 | 1008.3 |
| 20260506135334 | 18 | 216 | 0.0 | 6.4 | 0.00 | 0.00 | 0.00 | 78 | 1008.3 |
| 20260506134834 | 18 | 214 | 3.2 | 4.8 | 0.00 | 0.00 | 0.00 | 78 | 1008.3 |
| 20260506134334 | 17 | 201 | 0.0 | 1.6 | 0.00 | 0.00 | 0.00 | 79 | 1008.7 |
| 20260506133834 | 17 | 199 | 0.0 | 1.6 | 0.00 | 0.00 | 0.00 | 79 | 1008.7 |
| 20260506132334 | 17 | 208 | 0.0 | 3.2 | 0.00 | 0.00 | 0.00 | 81 | 1008.6 |
| 20260506130334 | 16 | 188 | 0.0 | 4.8 | 0.00 | 0.00 | 0.00 | 82 | 1008.4 |
| 20260506125834 | 16 | 200 | 0.0 | 11.3 | 0.00 | 0.00 | 0.00 | 82 | 1008.4 |
| 20260506125334 | 16 | 232 | 0.0 | 11.3 | 0.00 | 0.00 | 0.00 | 82 | 1008.4 |
| 20260506124834 | 16 | 197 | 0.0 | 14.5 | 0.00 | 0.00 | 0.00 | 83 | 1008.4 |
| 20260506124334 | 16 | 196 | 0.0 | 14.5 | 0.00 | 0.00 | 0.00 | 83 | 1008.2 |
| 20260506123834 | 16 | 200 | 0.0 | 6.4 | 0.00 | 0.00 | 0.00 | 83 | 1008.2 |
| 20260506123334 | 16 | 203 | 0.0 | 6.4 | 0.00 | 0.00 | 0.00 | 83 | 1008.2 |
| 20260506122834 | 16 | 206 | 0.0 | 3.2 | 0.00 | 0.00 | 0.00 | 84 | 1008.7 |
| 20260506122334 | 15 | 208 | 0.0 | 3.2 | 0.00 | 0.00 | 0.00 | 84 | 1008.7 |
| 20260506121834 | 15 | 192 | 0.0 | 0.0 | 0.00 | 0.00 | 0.00 | 84 | 1008.7 |
| 20260506121334 | 15 | 200 | 0.0 | 0.0 | 0.00 | 0.00 | 0.00 | 84 | 1008.8 |
| 20260506120335 | 15 | 207 | 0.0 | 0.0 | 0.00 | 0.00 | 0.00 | 84 | 1008.8 |
| 20260506115334 | 15 | 206 | 0.0 | 0.0 | 0.00 | 0.00 | 0.00 | 85 | 1008.8 |
| 20260506114334 | 15 | 199 | 0.0 | 0.0 | 0.00 | 0.00 | 0.00 | 85 | 1009.1 |
| 20260506112834 | 15 | 199 | 0.0 | 1.6 | 0.00 | 0.00 | 0.00 | 86 | 1008.9 |
| 20260506112334 | 15 | 203 | 0.0 | 0.0 | 0.00 | 0.00 | 0.00 | 86 | 1008.9 |
| 20260506111804 | 14 | 212 | 0.0 | 0.0 | 0.00 | 0.00 | 0.00 | 87 | 1008.9 |
| 20260506111334 | 14 | 196 | 0.0 | 0.0 | 0.00 | 0.00 | 0.00 | 87 | 1008.8 |
| 20260506110834 | 14 | 199 | 0.0 | 0.0 | 0.00 | 0.00 | 0.00 | 87 | 1008.8 |
| 20260506110334 | 14 | 184 | 0.0 | 0.0 | 0.00 | 0.00 | 0.00 | 87 | 1008.8 |
| 20260506105834 | 14 | 203 | 0.0 | 0.0 | 0.00 | 0.00 | 0.00 | 87 | 1008.9 |
| 20260506105334 | 14 | 204 | 0.0 | 0.0 | 0.00 | 0.00 | 0.00 | 87 | 1008.9 |
| 20260506104835 | 14 | 193 | 0.0 | 0.0 | 0.00 | 0.00 | 0.00 | 87 | 1008.9 |
| 20260506104334 | 14 | 200 | 0.0 | 0.0 | 0.00 | 0.00 | 0.00 | 87 | 1009.0 |
| 20260506103834 | 14 | 200 | 0.0 | 0.0 | 0.00 | 0.00 | 0.00 | 87 | 1009.0 |
| 20260506103334 | 14 | 200 | 0.0 | 0.0 | 0.00 | 0.00 | 0.00 | 88 | 1009.0 |
| 20260506102804 | 14 | 200 | 0.0 | 0.0 | 0.00 | 0.00 | 0.00 | 88 | 1008.7 |
| 20260506101334 | 14 | 197 | 0.0 | 0.0 | 0.00 | 0.00 | 0.00 | 88 | 1008.7 |
| 20260506100334 | 13 | 196 | 0.0 | 0.0 | 0.00 | 0.00 | 0.00 | 88 | 1008.7 |
| 20260506095834 | 13 | 196 | 0.0 | 0.0 | 0.00 | 0.00 | 0.00 | 88 | 1008.8 |
| 20260506095334 | 13 | 196 | 0.0 | 0.0 | 0.00 | 0.00 | 0.00 | 88 | 1008.8 |
| 20260506094834 | 13 | 196 | 0.0 | 0.0 | 0.00 | 0.00 | 0.00 | 88 | 1008.8 |
| 20260506094334 | 13 | 196 | 0.0 | 0.0 | 0.00 | 0.00 | 0.00 | 88 | 1008.7 |
| 20260506093834 | 13 | 197 | 0.0 | 0.0 | 0.00 | 0.00 | 0.00 | 88 | 1008.7 |
| 20260506093304 | 13 | 197 | 0.0 | 0.0 | 0.00 | 0.00 | 0.00 | 87 | 1008.7 |
| 20260506092834 | 13 | 197 | 0.0 | 0.0 | 0.00 | 0.00 | 0.00 | 87 | 1008.7 |
| 20260506092334 | 13 | 197 | 0.0 | 0.0 | 0.00 | 0.00 | 0.00 | 87 | 1008.7 |
| 20260506091834 | 13 | 197 | 0.0 | 0.0 | 0.00 | 0.00 | 0.00 | 87 | 1008.7 |
| 20260506091334 | 13 | 197 | 0.0 | 0.0 | 0.00 | 0.00 | 0.00 | 87 | 1008.7 |
| 20260506090834 | 13 | 197 | 0.0 | 0.0 | 0.00 | 0.00 | 0.00 | 87 | 1008.7 |
| 20260506090335 | 13 | 196 | 0.0 | 0.0 | 0.00 | 0.00 | 0.00 | 87 | 1008.7 |
| 20260506085834 | 13 | 197 | 0.0 | 0.0 | 0.00 | 0.00 | 0.00 | 87 | 1008.8 |
| 20260506085334 | 13 | 196 | 0.0 | 0.0 | 0.00 | 0.00 | 0.00 | 87 | 1008.8 |
| 20260506084804 | 13 | 229 | 0.0 | 0.0 | 0.00 | 0.00 | 0.00 | 87 | 1008.8 |
| 20260506084334 | 14 | 229 | 0.0 | 0.0 | 0.00 | 0.00 | 0.00 | 87 | 1008.8 |
| 20260506083834 | 14 | 210 | 0.0 | 0.0 | 0.00 | 0.00 | 0.00 | 87 | 1008.8 |
| 20260506083334 | 14 | 202 | 0.0 | 3.2 | 0.00 | 0.00 | 0.00 | 87 | 1008.8 |
| 20260506082834 | 14 | 208 | 0.0 | 3.2 | 0.00 | 0.00 | 0.00 | 86 | 1008.8 |
| 20260506082305 | 14 | 205 | 0.0 | 0.0 | 0.00 | 0.00 | 0.00 | 87 | 1008.8 |
| 20260506081834 | 14 | 205 | 0.0 | 0.0 | 0.00 | 0.00 | 0.00 | 86 | 1008.8 |
| 20260506081304 | 14 | 205 | 0.0 | 0.0 | 0.00 | 0.00 | 0.00 | 86 | 1008.9 |
| 20260506080804 | 14 | 205 | 0.0 | 0.0 | 0.00 | 0.00 | 0.00 | 86 | 1008.9 |
| 20260506080334 | 14 | 205 | 0.0 | 0.0 | 0.00 | 0.00 | 0.00 | 86 | 1008.9 |
| 20260506072804 | 14 | 196 | 0.0 | 0.0 | 0.00 | 0.00 | 0.00 | 85 | 1008.8 |
| 20260506072335 | 14 | 196 | 0.0 | 0.0 | 0.00 | 0.00 | 0.00 | 85 | 1008.8 |
| 20260506071834 | 14 | 198 | 0.0 | 0.0 | 0.00 | 0.00 | 0.00 | 85 | 1008.8 |
| 20260506071304 | 14 | 198 | 0.0 | 0.0 | 0.00 | 0.00 | 0.00 | 85 | 1008.8 |
| 20260506070804 | 14 | 198 | 0.0 | 0.0 | 0.00 | 0.00 | 0.00 | 85 | 1008.8 |